Find SpaceMobile-002

NORAD ID: 61048 Int'l Des: 2024-163 Owner: ASTS Country: US Constellation: bluewalker operational
LEOCIRCULAR

Current View

Loading 3D Globe...

About SpaceMobile-002

Description loading...

Upcoming Passes

Passes for default location (London). Set your location on the main map for personalized predictions.

Altitude History

Loading altitude history...

Two-Line Element Set

1 61048U 24163D 26151.03147881 .00016238 00000-0 74034-3 0 9993
2 61048 52.9764 28.0382 0009013 73.0028 287.1953 15.20768166 95157
Epoch: May 31, 2026 • Age: 17 hours

Current Status

Altitude 523.3 km
Velocity 7.60 km/s
Sub-Earth Point -45.10°S, 179.21°E
Launch Date Sep 12, 2024
Age 1.7 years
Type other

Technical Details

Classification Payload
Mass 1500.00 kg
Dry Mass 1500.00 kg
Total Mass 1500.00 kg
Length 1.00 m
Diameter 1.00 m
Span 9.00 m
Shape Box + plate
Manufacturer ASTS
Bus Type BW3
Phase Status In Orbit
Owner/State ASTS/US

Most Searched